Content
SEND FEEDBACK

Daily
Averages
Monthly
Summary
United States of America

CLERMONT, FLORIDA


Home > North America > United States > Florida
Elevation: 133 feet     Latitude: 28 03N     Longitude: 081 45W

WEATHER
 
SELECT A DAY
Number of Records: 179,832;   Date Range: 7/1/96 - 7/22/14
 
SHARE

PRINT THIS DATA

[ ← Previous Day ]
WEATHER ALMANAC - JANUARY 31, 2013
[ Next Day → ]
[ °C ]   °F
Weather ElementAverageHighLow
Temperature58.2 °F64.9 °F (2:53 pm)48.9 °F (11:53 pm)
Dewpoint45.4 °F59 °F (1:47 am)24.1 °F (3:53 pm)
Humidity67.6 %93 % (2:08 am)22 % (3:53 pm)
Barometer30.10 in30.25 in (10:53 pm)29.99 in (1:47 am)
Wind Speed10.8 mph24.2 mph (1:53 am)
Wind Gust32.2 mph (1:47 am)
Weather ElementAverage
Visibility9.2 mi
Wind DirectionNW (320.3 °)

Weather ElementTotal
Precipitation0.16 in
Heating Degree Days8.1 (Base 65)
Growing Degree Days6.9 (Base 50)
Averaged from 32 records on January 31, 2013
WEATHER CONDITIONS BREAKOUT
WIND DIRECTION BREAKOUT
WEATHER BY HOUR - JANUARY 31, 2013
[ °C ]   °F
Local TimeTemperatureDewpointHumidityBarometerVisibilityWind DirectionWind SpeedGust SpeedPrecipitationEventsConditions
1:47 AM64.4 °F59.0 °F83 %29.99 in10.0 miWNW (300°)16.1 mph32.2 mphMostly Cloudy
1:53 AM62.1 °F57.9 °F86 %29.99 in9.0 miNW (310°)24.2 mph29.9 mph0.00 inRainLight Rain
1:58 AM61.0 °F57.9 °F90 %29.99 in8.0 miNW (310°)17.3 mph29.9 mph0.01 inRainLight Rain
2:08 AM60.1 °F57.9 °F93 %30.00 in9.0 miNW (310°)16.1 mph24.2 mph0.01 inRainLight Rain
2:34 AM59.0 °F57.0 °F93 %30.00 in9.0 miNNW (330°)9.2 mph0.01 inRainLight Rain
2:43 AM59.0 °F55.0 °F87 %30.00 in7.0 miNW (310°)18.4 mph24.2 mph0.01 inOvercast
2:53 AM57.9 °F54.0 °F87 %30.00 in6.0 miWNW (300°)16.1 mph24.2 mph0.01 inRainLight Rain
3:30 AM57.0 °F55.0 °F93 %30.02 in6.0 miNW (320°)9.2 mph20.7 mph0.02 inOvercast
3:37 AM57.0 °F55.0 °F93 %30.02 in7.0 miNW (310°)8.1 mph0.02 inRainLight Rain
3:53 AM57.0 °F55.0 °F93 %30.02 in4.0 miNW (310°)9.2 mph0.03 inRainLight Rain
4:13 AM57.0 °F55.0 °F93 %30.02 in8.0 miNNW (340°)6.9 mph0.01 inOvercast
4:53 AM57.0 °F55.0 °F93 %30.02 in10.0 miNW (320°)5.8 mph0.01 inOvercast
5:53 AM57.0 °F54.0 °F89 %30.04 in10.0 miNNW (330°)8.1 mphOvercast
6:12 AM57.0 °F55.0 °F93 %30.05 in10.0 miNorth (360°)4.6 mph0.01 inOvercast
6:53 AM57.0 °F54.0 °F89 %30.07 in10.0 miNW (320°)6.9 mph0.01 inOvercast
7:53 AM57.0 °F52.0 °F83 %30.10 in10.0 miNW (320°)8.1 mphClear
8:53 AM57.0 °F51.1 °F81 %30.14 in10.0 miNNW (330°)11.5 mphScattered Clouds
9:53 AM59.0 °F46.0 °F62 %30.15 in10.0 miNNW (340°)15.0 mphClear
10:53 AM61.0 °F44.1 °F54 %30.17 in10.0 miNW (310°)11.5 mphClear
11:53 AM62.1 °F37.0 °F39 %30.16 in10.0 miNNW (340°)8.1 mphClear
12:53 PM63.0 °F37.0 °F38 %30.15 in10.0 miNW (310°)8.1 mphClear
1:53 PM64.0 °F37.0 °F37 %30.14 in10.0 miNW (310°)11.5 mphClear
2:53 PM64.9 °F28.0 °F25 %30.15 in10.0 miNNW (340°)11.5 mphClear
3:53 PM64.0 °F24.1 °F22 %30.15 in10.0 miNNW (340°)12.7 mphClear
4:53 PM63.0 °F30.0 °F29 %30.16 in10.0 miWNW (300°)6.9 mphClear
5:53 PM60.1 °F26.1 °F27 %30.16 in10.0 miNW (310°)6.9 mphClear
6:53 PM55.9 °F28.9 °F36 %30.18 in10.0 miWNW (290°)8.1 mphClear
7:53 PM53.1 °F32.0 °F45 %30.21 in10.0 miNW (310°)11.5 mphClear
8:53 PM51.1 °F33.1 °F50 %30.23 in10.0 miNW (320°)9.2 mphClear
9:53 PM50.0 °F35.1 °F57 %30.24 in10.0 miNW (320°)9.2 mphClear
10:53 PM50.0 °F37.9 °F63 %30.25 in10.0 miNNW (340°)9.2 mphClear
11:53 PM48.9 °F36.0 °F61 %30.25 in10.0 miNNW (340°)10.4 mphClear
Hourly data recorded from KGIF, located miles away from Clermont, Florida







STORIES FROM OUR PARTNERS